Regional Weather Roundup
Issued by NWS New Orleans/Baton Rouge, LA

Home | Current Version | Previous Version | Graphics & Text | Print | Product List | Glossary On
Versions: 1 2 3 4 5 6 7 8 9 10 11 12 13 14 15 16 17 18 19 20 21 22 23 24 25 26 27 28 29 30 31 32 33 34 35 36 37 38 39 40 41 42 43 44 45 46 47 48 49 50
712
ASUS44 KLIX 222101
RWRLIX
NEW ORLEANS REGIONAL WEATHER ROUNDUP
NATIONAL WEATHER SERVICE NEW ORLEANS LA
400 PM CDT WED OCT 22 2014

NOTE: "FAIR" INDICATES FEW OR NO CLOUDS BELOW 12,000 FEET WITH NO
      SIGNIFICANT WEATHER AND/OR OBSTRUCTIONS TO VISIBILITY.
      SKY/WX - SKY CONDITION AND SIGNIFICANT WEATHER.
      TMP - AIR TEMPERATURE.     DP    - DEWPOINT TEMPERATURE.
      RH  - RELATIVE HUMIDITY.   PRES  - PRESSURE.
      HI  - HEAT INDEX.          WCI   - WIND CHILL INDEX.

*  THESE STATIONS ARE NOT NWS OR FAA STATIONS AND ARE NOT UNDER
   NWS QUALITY CONTROL.

LAZ038-040-048-061>063-065>067-069-222200-
SOUTHEAST LOUISIANA

CITY           SKY/WX    TMP DP  RH WIND       PRES   REMARKS
N.O. AUDUBON     N/A     78  56  45 MISG        N/A
N.O. INTL ARPT SUNNY     79  53  40 NE8       30.02F
N.O. LAKEFRONT SUNNY     77  57  50 NW7       30.03F
N.O. DOWNTOWN*   N/A     79  52  38 N7        30.02F
SLIDELL        SUNNY     80  50  34 N8        30.02F
BATON ROUGE    SUNNY     79  51  37 NE10      30.04F
BOOTHVILLE     SUNNY     76  59  55 NE9       30.02S
BELLE CHASSE   SUNNY     79  54  41 NE5       30.01F
BOGALUSA*        N/A     81  47  31 NE6       30.05S
NEW ROADS*       N/A     78  51  38 N6        30.05S
GONZALES*        N/A     79  54  41 CALM      30.02F
HAMMOND*       NOT AVBL
HOUMA*         SUNNY     81  57  44 NE12      30.01F
PORT FOURCHON* CLEAR     77  59  53 NE16      30.04F

$$

MSZ070-080>082-222200-
SOUTHERN MISSISSIPPI

CITY           SKY/WX    TMP DP  RH WIND       PRES   REMARKS
MCCOMB         SUNNY     78  45  30 NE8       30.06F
GULFPORT       SUNNY     79  50  36 N9        30.01F
BILOXI         SUNNY     79  52  37 NE12      30.02S
PASCAGOULA     SUNNY     79  49  34 N9        30.02S
STENNIS ARPT*  SUNNY     81  45  28 NE8       30.02F

$$

COASTAL OBSERVATIONS
LAKE AND NEARSHORE STATIONS

STATION/POSITION TIME  TEMP    WIND        PRES    WAVE
                       AIR SEA DIR/SP/G            HT/PER
                 (UTC) (F)     (DEG/KT/KT) (MB)    (FT/S)
PASCAGOULA       2000   79      10/  8/ 11 1016.0
WAVELAND YACHT   2000   74     150/  3/  5 1016.0
GRAND ISLE       2000   75 75   60/ 12/ 15 1016.9
SOUTHWEST PASS   2000   84 83              1016.2
NEW CANAL        2000   74 72  360/  4/  4 1017.3
SHELL BEACH      2000   75 69   50/  8/ 10 1016.6

OFFSHORE STATIONS

STATION/POSITION TIME  TEMP    WIND        PRES    WAVE
                       AIR SEA DIR/SP/G            HT/PER
                 (UTC) (F)     (DEG/KT/KT) (MB)    (FT/S)
64 S DAUPHIN ISL 2001   74 80   50/ 16/ 17 1016.3    3/ 5

$$




USA.gov is the U.S. government's official web portal to all federal, state and local government web resources and services.